Location: Unspecified
(38.9833°N, 0.0000°E)
Time: 01:13:12
(UTC+00:00)

YUBILEINY - Visible Passes

Search period start: 24 October 2020 00:00
Search period end: 03 November 2020 00:00
Orbit: 1478 x 1509 km, 82.5° (Epoch: 23 October)

Date Brightness Start Highest point End Pass type
(mag) Time Alt. Az. Time Alt. Az. Time Alt. Az.
24 Oct ? 22:04:50 10° N 22:05:48 14° N 22:05:48 14° N visible
25 Oct ? 21:15:37 10° N 21:16:34 13° N 21:16:34 13° N visible
26 Oct ? 20:27:04 10° NNE 20:27:21 11° NNE 20:27:21 11° NNE visible
26 Oct ? 22:22:29 10° N 22:23:15 13° N 22:23:15 13° N visible
27 Oct ? 21:32:56 10° N 21:34:03 15° N 21:34:03 15° N visible
28 Oct ? 20:43:53 10° N 20:44:51 13° NNE 20:44:51 13° NNE visible
28 Oct ? 22:40:21 10° NNW 22:40:45 12° NNW 22:40:45 12° NNW visible
29 Oct ? 21:50:30 10° N 21:51:34 15° N 21:51:34 15° N visible
30 Oct ? 21:01:05 10° N 21:02:23 15° N 21:02:23 15° N visible
31 Oct ? 20:12:13 10° NNE 20:13:13 13° NNE 20:13:13 13° NNE visible
31 Oct ? 22:08:16 10° NNW 22:09:08 14° NNW 22:09:08 14° NNW visible
01 Nov ? 21:18:33 10° N 21:19:58 16° N 21:19:58 16° N visible
02 Nov ? 20:29:17 10° N 20:30:50 16° N 20:30:50 16° N visible
02 Nov ? 22:26:19 10° NNW 22:26:44 12° NNW 22:26:44 12° NNW visible
